Weather History for Renton, WA

Change the Weather History Date:

Friday, January 11, 2013

  Actual Average Record
Temperature  
Mean Temperature 32 °F -  
Max Temperature 36 °F 45 °F - (-1)
Min Temperature 28 °F 36 °F - (-1)
Degree Days  
Heating Degree Days 33    
Moisture  
Dew Point 28 °F    
Average Humidity 91    
Maximum Humidity 100    
Minimum Humidity 61    
Precipitation  
Precipitation 0.00 in - - ()
Sea Level Pressure  
Sea Level Pressure 30.25 in    
Wind  
Wind Speed 2 mph (South)    
Max Wind Speed 6 mph    
Max Gust Speed -    
Visibility 6 miles    
Events      
Averages and records for this station are not official NWS values.
T = Trace of Precipitation, MM = Missing Value Source: NWS Daily Summary

Daily Weather History Graph

Daily Weather History Graph

Search for Another Location

Airport:

Trip Planner

Search our weather history database for the weather conditions in past years. The results will help you decide how hot, cold, wet, or windy it might be!

Date:

Astronomy

Jan. 11, 2013 Rise Set
Actual Time 7:54 AM PST 4:40 PM PST
Civil Twilight 7:19 AM PST 5:15 PM PST
Nautical Twilight 6:40 AM PST 5:53 PM PST
Astronomical Twilight 6:03 AM PST 6:30 PM PST
Moon 7:28 AM PST (1/11) 5:09 PM PST (1/11)
Length of Visible Light 9h 56m
Length of Day
8h 46m
New Moon, 0% of the Moon is Illuminated
Jan 11
New Moon
Jan 18
First Quarter
Jan 26
Full
Feb 3
Last Quarter
Feb 9
New

Hourly Weather History & Observations

Time (PST) Temp. Windchill Dew Point Humidity Pressure Visibility Wind Dir Wind Speed Gust Speed Precip Events Conditions
12:53 AM 32.0 °F 26.4 °F 32.0 °F 100% 30.14 in 5.0 mi East 5.8 mph - N/A   Overcast
1:53 AM 32.0 °F - 32.0 °F 100% 30.16 in 5.0 mi Calm Calm - N/A   Overcast
2:30 AM 30.2 °F - 30.2 °F 100% 30.15 in 6.0 mi Calm Calm - N/A   Mostly Cloudy
2:37 AM 30.2 °F - 30.2 °F 100% 30.15 in 6.0 mi Calm Calm - N/A   Partly Cloudy
2:53 AM 30.9 °F 27.5 °F 30.0 °F 96% 30.17 in 5.0 mi SSE 3.5 mph - N/A   Clear
3:03 AM 32.0 °F - 30.2 °F 93% 30.15 in 4.0 mi Calm Calm - N/A   Scattered Clouds
3:19 AM 30.2 °F - 30.2 °F 100% 30.16 in 4.0 mi Calm Calm - N/A   Mostly Cloudy
3:41 AM 30.2 °F - 30.2 °F 100% 30.16 in 2.5 mi Calm Calm - N/A   Overcast
3:50 AM 30.2 °F - 30.2 °F 100% 30.16 in 2.0 mi Calm Calm - N/A   Overcast
3:53 AM 30.9 °F 27.5 °F 30.9 °F 100% 30.18 in 2.0 mi SSE 3.5 mph - N/A   Overcast
4:22 AM 30.2 °F - 30.2 °F 100% 30.17 in 1.2 mi Calm Calm - N/A   Overcast
4:34 AM 30.2 °F - 30.2 °F 100% 30.17 in 0.8 mi Calm Calm - N/A   Overcast
4:53 AM 30.0 °F 26.5 °F 30.0 °F 100% 30.19 in 1.0 mi ESE 3.5 mph - N/A   Overcast
5:05 AM 30.2 °F - 30.2 °F 100% 30.18 in 3.0 mi Calm Calm - N/A   Overcast
5:53 AM 30.0 °F 26.5 °F 30.0 °F 100% 30.21 in 3.0 mi ESE 3.5 mph - N/A   Overcast
6:53 AM 30.0 °F - 28.9 °F 96% 30.23 in 5.0 mi Calm Calm - N/A   Overcast
7:19 AM 30.2 °F 26.7 °F 28.4 °F 93% 30.23 in 6.0 mi SSE 3.5 mph - N/A   Mostly Cloudy
7:38 AM 28.4 °F - 26.6 °F 93% 30.24 in 7.0 mi Calm Calm - N/A   Scattered Clouds
7:53 AM 28.0 °F - 27.0 °F 96% 30.27 in 6.0 mi Calm Calm - N/A   Clear
8:53 AM 30.0 °F - 28.0 °F 92% 30.29 in 5.0 mi Calm Calm - N/A   Clear
9:53 AM 32.0 °F - 28.0 °F 85% 30.30 in 7.0 mi Calm Calm - N/A   Clear
10:53 AM 33.1 °F 28.7 °F 28.0 °F 82% 30.32 in 10.0 mi WNW 4.6 mph - N/A   Partly Cloudy
11:53 AM 33.1 °F 28.7 °F 28.9 °F 85% 30.32 in 10.0 mi West 4.6 mph - N/A   Clear
12:53 PM 33.1 °F 30.0 °F 28.9 °F 85% 30.32 in 10.0 mi Variable 3.5 mph - N/A   Partly Cloudy
1:53 PM 35.1 °F 30.1 °F 27.0 °F 72% 30.33 in 10.0 mi NNW 5.8 mph - N/A   Clear
2:53 PM 36.0 °F 31.1 °F 25.0 °F 64% 30.33 in 10.0 mi NW 5.8 mph - N/A   Clear
3:53 PM 35.1 °F 32.2 °F 24.1 °F 64% 30.34 in 10.0 mi West 3.5 mph - N/A   Clear
4:53 PM 34.0 °F 31.0 °F 21.9 °F 61% 30.34 in 10.0 mi West 3.5 mph - N/A   Clear
5:53 PM 33.1 °F - 26.1 °F 75% 30.35 in 10.0 mi Calm Calm - N/A   Clear
6:53 PM 30.0 °F - 27.0 °F 88% 30.35 in 10.0 mi Calm Calm - N/A   Clear
7:53 PM 28.9 °F - 27.0 °F 92% 30.34 in 10.0 mi Calm Calm - N/A   Clear
8:53 PM 30.0 °F 26.5 °F 28.0 °F 92% 30.34 in 9.0 mi ESE 3.5 mph - N/A   Clear
9:53 PM 28.9 °F - 27.0 °F 92% 30.35 in 9.0 mi Calm Calm - N/A   Clear
10:53 PM 28.9 °F - 27.0 °F 92% 30.35 in 9.0 mi Calm Calm - N/A   Clear
11:53 PM 28.9 °F - 27.0 °F 92% 30.34 in 9.0 mi Calm Calm - N/A   Clear